[Date Prev][Date Next][Thread Prev][Thread Next] - [Date Index][Thread Index][Author Index]
2 Line ISS Keps 1-26
- Subject: [sarex] 2 Line ISS Keps 1-26
- From: "Dave Larsen PhD" <doc@xxxxxxxxxxx>
- Date: Sat, 26 Jan 2002 03:18:57 -0800
ISS
1 25544U 98067A 02026.16189701 .00069628 00000-0 89157-3 0 66
2 25544 51.6403 46.9030 0006851 357.4052 112.2896 15.58518899181872
----
Via the sarex mailing list at AMSAT.ORG courtesy of AMSAT-NA.
To unsubscribe, send "unsubscribe sarex" to Majordomo@amsat.org
AMSAT Home